Overview Statistics Trail Chart Weather Telemetry Raw packets
 

This is the latest recevied weather packets stored in our database for station/object KE0TNI-13. If no packets are shown the sender has not sent any weather packets the latest 10 day(s).

<< 57 58 59 60 61 62 63 >>
Time Temp. Humidity Pressure Rain* Wind** Luminosity Snow
1777287314 -3.33° C 81% 1009.7 hPa 0 mm - 0 W/m² -
1777287011 -3.33° C 81% 1009.7 hPa 0 mm - 0 W/m² -
1777286708 -3.33° C 80% 1009.6 hPa 0 mm - 0 W/m² -
1777286407 -3.33° C 81% 1009.6 hPa 0 mm - 0 W/m² -
1777286102 -2.78° C 81% 1009.6 hPa 0 mm - 0 W/m² -
1777285800 -2.78° C 79% 1009.6 hPa 0 mm - 0 W/m² -
1777285498 -2.78° C 79% 1009.3 hPa 0 mm - 0 W/m² -
1777285194 -2.78° C 79% 1009.7 hPa 0 mm - 0 W/m² -
1777284892 -2.22° C 77% 1009.3 hPa 0 mm - 0 W/m² -
1777284589 -2.22° C 77% 1009.3 hPa 0 mm - 0 W/m² -
1777284285 -2.22° C 77% 1009.3 hPa 0 mm - 0 W/m² -
1777283982 -2.22° C 78% 1009.2 hPa 0 mm - 0 W/m² -
1777283678 -2.22° C 76% 1009.3 hPa 0 mm - 0 W/m² -
1777283378 -2.22° C 76% 1009.3 hPa 0 mm - 0 W/m² -
1777283076 -1.67° C 74% 1009.2 hPa 0 mm - 0 W/m² -
1777282771 -2.22° C 75% 1009.2 hPa 0 mm - 0 W/m² -
1777282467 -2.22° C 77% 1008.9 hPa 0 mm - 0 W/m² -
1777282166 -2.22° C 74% 1008.9 hPa 0 mm - 0 W/m² -
1777281862 -2.22° C 77% 1009.2 hPa 0 mm - 0 W/m² -
1777281560 -2.22° C 76% 1008.9 hPa 0 mm - 0 W/m² -
1777281256 -2.22° C 76% 1008.8 hPa 0 mm - 0 W/m² -
1777280953 -2.22° C 76% 1008.8 hPa 0 mm - 0 W/m² -
1777280649 -2.22° C 76% 1008.8 hPa 0 mm - 0 W/m² -
1777280347 -2.22° C 77% 1008.9 hPa 0 mm - 0 W/m² -
1777280043 -2.22° C 77% 1008.9 hPa 0 mm - 0 W/m² -

* Rain latest hour (hover to see other rain measurements)
** Current wind speed in m/s (hover to see current wind gust speed)